When you browse on this site, cookies collect data to enhance your experience and personalize the content and advertising you see.
Visit our Privacy Policy to learn more. By continuing to use the site, you agree to this use of cookies and data.
  • In Deutschland
  • Länderverzeichnis
  • Für 7 Tage
  • Wassertemperatur
  • Wetterkarte
  • Widgets
  • user-avatar
    Anmelden

    Stündliche Wetter Mokrousskoe

    Heute, 16 Oktober, Mittwoch

    Zeit Temperatur Niederschläge Wind Luftdruck Luftfeuchtigkeit
    00:00 0°C° 0 mm 3 m/S 734 mmHg 90%
    01:00 0°C° 0 mm 3 m/S 734 mmHg 89%
    02:00 0°C° 0 mm 3 m/S 734 mmHg 89%
    03:00 -1°C° 0 mm 3 m/S 735 mmHg 90%
    04:00 -1°C° 0 mm 3 m/S 735 mmHg 90%
    05:00 -1°C° 0 mm 4 m/S 735 mmHg 91%
    06:00 -1°C° 0 mm 4 m/S 736 mmHg 93%
    07:00 -1°C° 0 mm 4 m/S 736 mmHg 94%
    08:00 0°C° 0 mm 4 m/S 737 mmHg 90%
    09:00 0°C° 0 mm 4 m/S 737 mmHg 86%
    10:00 0°C° 0 mm 4 m/S 738 mmHg 82%
    11:00 +1°C° 0 mm 4 m/S 738 mmHg 79%
    12:00 +1°C° 0 mm 4 m/S 738 mmHg 77%
    13:00 +1°C° 0 mm 4 m/S 738 mmHg 74%
    14:00 +1°C° 0 mm 4 m/S 739 mmHg 75%
    15:00 +1°C° 0 mm 4 m/S 740 mmHg 75%
    16:00 +1°C° 0 mm 4 m/S 740 mmHg 75%
    17:00 0°C° 0 mm 4 m/S 741 mmHg 75%
    18:00 0°C° 0 mm 4 m/S 741 mmHg 76%
    19:00 -1°C° 0 mm 4 m/S 742 mmHg 76%
    20:00 -1°C° 0 mm 4 m/S 742 mmHg 78%
    21:00 -2°C° 0 mm 4 m/S 742 mmHg 79%
    22:00 -2°C° 0 mm 4 m/S 743 mmHg 81%
    23:00 -2°C° 0 mm 4 m/S 743 mmHg 81%

    Morgen, 17 Oktober, Donnerstag

    Zeit Temperatur Niederschläge Wind Luftdruck Luftfeuchtigkeit
    00:00 -2°C° 0 mm 4 m/S 743 mmHg 81%
    01:00 -2°C° 0 mm 4 m/S 744 mmHg 81%
    02:00 -2°C° 0 mm 4 m/S 744 mmHg 81%
    03:00 -3°C° 0 mm 4 m/S 745 mmHg 81%
    04:00 -2°C° 0 mm 3 m/S 745 mmHg 81%
    05:00 -2°C° 0 mm 3 m/S 745 mmHg 82%
    06:00 -2°C° 0 mm 3 m/S 746 mmHg 83%
    07:00 -2°C° 0 mm 3 m/S 746 mmHg 84%
    08:00 -1°C° 0 mm 3 m/S 746 mmHg 79%
    09:00 -1°C° 0 mm 3 m/S 746 mmHg 75%
    10:00 0°C° 0 mm 3 m/S 746 mmHg 71%
    11:00 0°C° 0 mm 3 m/S 746 mmHg 70%
    12:00 0°C° 0 mm 3 m/S 746 mmHg 69%
    13:00 +1°C° 0 mm 3 m/S 746 mmHg 69%
    14:00 0°C° 0 mm 3 m/S 746 mmHg 69%
    15:00 0°C° 0 mm 3 m/S 746 mmHg 70%
    16:00 0°C° 0 mm 3 m/S 746 mmHg 71%
    17:00 +1°C° 0 mm 2 m/S 745 mmHg 74%
    18:00 -1°C° 0 mm 2 m/S 745 mmHg 77%
    19:00 +1°C° 0 mm 1 m/S 745 mmHg 80%
    20:00 +1°C° 0.2 mm 1 m/S 744 mmHg 86%
    21:00 0°C° 0.2 mm 1 m/S 744 mmHg 91%
    22:00 0°C° 0.2 mm 1 m/S 744 mmHg 96%
    23:00 0°C° 0.5 mm 1 m/S 743 mmHg 96%

    übermorgen, 18 Oktober, Freitag

    Zeit Temperatur Niederschläge Wind Luftdruck Luftfeuchtigkeit
    00:00 -2°C° 0.5 mm 2 m/S 742 mmHg 97%
    01:00 -2°C° 0.5 mm 2 m/S 742 mmHg 97%
    02:00 -2°C° 0.3 mm 2 m/S 741 mmHg 97%
    03:00 -2°C° 0.3 mm 2 m/S 741 mmHg 97%
    04:00 -2°C° 0.3 mm 2 m/S 741 mmHg 97%
    05:00 -2°C° 0.2 mm 2 m/S 740 mmHg 97%
    06:00 -2°C° 0.2 mm 2 m/S 740 mmHg 97%
    07:00 -2°C° 0.2 mm 2 m/S 740 mmHg 97%
    08:00 -2°C° 0.2 mm 3 m/S 740 mmHg 95%
    09:00 -1°C° 0.2 mm 3 m/S 740 mmHg 94%
    10:00 -1°C° 0.2 mm 3 m/S 740 mmHg 93%
    11:00 -2°C° 0.3 mm 4 m/S 741 mmHg 92%
    12:00 -1°C° 0.3 mm 4 m/S 741 mmHg 92%
    13:00 -1°C° 0.3 mm 4 m/S 742 mmHg 91%
    14:00 -2°C° 0.2 mm 4 m/S 742 mmHg 89%
    15:00 -2°C° 0.2 mm 4 m/S 743 mmHg 87%
    16:00 -2°C° 0.2 mm 4 m/S 743 mmHg 84%
    17:00 -3°C° 0 mm 4 m/S 744 mmHg 85%
    18:00 -4°C° 0 mm 4 m/S 745 mmHg 86%
    19:00 -5°C° 0 mm 3 m/S 746 mmHg 86%
    20:00 -6°C° 0 mm 3 m/S 747 mmHg 88%
    21:00 -6°C° 0 mm 3 m/S 747 mmHg 89%
    22:00 -6°C° 0 mm 2 m/S 748 mmHg 91%
    23:00 -6°C° 0 mm 2 m/S 748 mmHg 92%

    19 Oktober, Samstag

    Zeit Temperatur Niederschläge Wind Luftdruck Luftfeuchtigkeit
    00:00 -6°C° 0 mm 2 m/S 749 mmHg 93%
    01:00 -7°C° 0 mm 2 m/S 749 mmHg 94%
    02:00 -7°C° 0 mm 2 m/S 750 mmHg 94%
    03:00 -7°C° 0 mm 2 m/S 750 mmHg 94%
    04:00 -6°C° 0 mm 1 m/S 751 mmHg 94%
    05:00 -6°C° 0 mm 1 m/S 751 mmHg 94%
    06:00 -6°C° 0 mm 1 m/S 751 mmHg 93%
    07:00 -6°C° 0 mm 1 m/S 752 mmHg 93%
    08:00 -4°C° 0 mm 1 m/S 752 mmHg 84%
    09:00 -2°C° 0 mm 1 m/S 752 mmHg 76%
    10:00 -1°C° 0 mm 1 m/S 753 mmHg 68%
    11:00 -1°C° 0 mm 0 m/S 753 mmHg 65%
    12:00 -1°C° 0 mm 0 m/S 753 mmHg 61%
    13:00 0°C° 0 mm 0 m/S 753 mmHg 58%
    14:00 -1°C° 0 mm 0 m/S 753 mmHg 62%
    15:00 -1°C° 0 mm 0 m/S 753 mmHg 65%
    16:00 -2°C° 0 mm 0 m/S 753 mmHg 69%
    17:00 -2°C° 0 mm 1 m/S 753 mmHg 72%
    18:00 -3°C° 0 mm 1 m/S 753 mmHg 76%
    19:00 -3°C° 0 mm 1 m/S 753 mmHg 80%
    20:00 -4°C° 0 mm 1 m/S 753 mmHg 81%
    21:00 -6°C° 0 mm 2 m/S 753 mmHg 83%
    22:00 -6°C° 0 mm 2 m/S 753 mmHg 85%
    23:00 -6°C° 0 mm 2 m/S 753 mmHg 86%

    20 Oktober, Sonntag

    Zeit Temperatur Niederschläge Wind Luftdruck Luftfeuchtigkeit
    00:00 -6°C° 0 mm 2 m/S 753 mmHg 86%
    01:00 -6°C° 0 mm 2 m/S 753 mmHg 87%
    02:00 -7°C° 0 mm 2 m/S 753 mmHg 87%
    03:00 -7°C° 0 mm 2 m/S 752 mmHg 87%
    04:00 -7°C° 0 mm 2 m/S 752 mmHg 88%
    05:00 -7°C° 0 mm 2 m/S 752 mmHg 87%
    06:00 -7°C° 0 mm 2 m/S 752 mmHg 86%
    07:00 -7°C° 0 mm 2 m/S 752 mmHg 85%
    08:00 -5°C° 0 mm 2 m/S 752 mmHg 81%
    09:00 -5°C° 0 mm 3 m/S 752 mmHg 77%
    10:00 -2°C° 0 mm 3 m/S 752 mmHg 73%
    11:00 -1°C° 0 mm 3 m/S 752 mmHg 72%
    12:00 0°C° 0 mm 3 m/S 751 mmHg 70%
    13:00 0°C° 0 mm 4 m/S 751 mmHg 69%
    14:00 +1°C° 0 mm 3 m/S 751 mmHg 72%
    15:00 0°C° 0 mm 3 m/S 750 mmHg 76%
    16:00 0°C° 0 mm 3 m/S 750 mmHg 80%
    17:00 -1°C° 0 mm 3 m/S 750 mmHg 81%
    18:00 -2°C° 0 mm 3 m/S 750 mmHg 83%
    19:00 -3°C° 0 mm 4 m/S 750 mmHg 85%
    20:00 -3°C° 0 mm 4 m/S 750 mmHg 86%
    21:00 -2°C° 0 mm 3 m/S 750 mmHg 88%
    22:00 -2°C° 0 mm 3 m/S 750 mmHg 89%
    23:00 -3°C° 0 mm 4 m/S 750 mmHg 90%

    21 Oktober, Montag

    Zeit Temperatur Niederschläge Wind Luftdruck Luftfeuchtigkeit
    00:00 -3°C° 0 mm 4 m/S 750 mmHg 90%
    01:00 -3°C° 0 mm 4 m/S 750 mmHg 90%
    02:00 -3°C° 0 mm 4 m/S 750 mmHg 90%
    03:00 -3°C° 0 mm 4 m/S 749 mmHg 90%
    04:00 -2°C° 0 mm 4 m/S 749 mmHg 90%
    05:00 -1°C° 0 mm 3 m/S 749 mmHg 90%
    06:00 -1°C° 0 mm 3 m/S 749 mmHg 90%
    07:00 -1°C° 0 mm 3 m/S 749 mmHg 91%
    08:00 0°C° 0 mm 3 m/S 749 mmHg 87%
    09:00 +1°C° 0 mm 3 m/S 749 mmHg 83%
    10:00 +2°C° 0 mm 3 m/S 749 mmHg 79%
    11:00 +1°C° 0 mm 4 m/S 748 mmHg 80%
    12:00 +3°C° 0 mm 4 m/S 748 mmHg 80%
    13:00 +3°C° 0 mm 4 m/S 748 mmHg 80%
    14:00 +3°C° 0 mm 4 m/S 748 mmHg 82%
    15:00 +1°C° 0 mm 4 m/S 747 mmHg 84%
    16:00 +1°C° 0 mm 4 m/S 747 mmHg 85%
    17:00 +1°C° 0.1 mm 4 m/S 747 mmHg 86%
    18:00 +1°C° 0.1 mm 4 m/S 746 mmHg 86%
    19:00 +1°C° 0.1 mm 5 m/S 746 mmHg 86%
    20:00 +1°C° 0.1 mm 5 m/S 746 mmHg 87%
    21:00 +2°C° 0.1 mm 5 m/S 745 mmHg 88%
    22:00 +2°C° 0.1 mm 5 m/S 745 mmHg 90%
    23:00 +2°C° 0.1 mm 5 m/S 744 mmHg 90%
    Mehr zeigen